INTELSAT 905 (IS-905)

Last updated on Tue Oct 15 2024 00:02:37 GMT+0000 (Coordinated Universal Time)

1 27438U 02027A 24288.18825779 -.00000182 00000+0 00000+0 0 9996 2 27438 5.2038 77.0750 0002693 120.3402 229.1104 1.00272052 45234
UTC large
Height (km)
Speed (km/s)
/
Latitude / Longitude
Inclination (degrees)
Orbital Period (minutes)
Azimuth
Elevation
Range (km)
Doppler Factor

Next 0 passes for location: London (51.5072 / 0.1276)

Sorry there are no passes over London.